Valdosta Regional, GA

7:51 PM EDT on June 21, 2018 (GMT -0400)
Valdosta Regional

Weather History for KVLD - April, 2014

Change the Weather History Date:

Thursday, April 3, 2014

  Actual Average Record
Temperature  
Mean Temperature 72 °F 63 °F  
Max Temperature 89 °F 76 °F 91 °F (2012)
Min Temperature 54 °F 50 °F 39 °F (2004)
Degree Days  
Heating Degree Days 0 4  
Month to date heating degree days 0 12  
Since 1 July heating degree days 1210 1578  
Cooling Degree Days 7 2  
Month to date cooling degree days 11 6  
Year to date cooling degree days 76 49  
Growing Degree Days 22 (Base 50)    
Moisture  
Dew Point 55 °F    
Average Humidity 58    
Maximum Humidity 86    
Minimum Humidity 29    
Precipitation  
Precipitation 0.00 in 0.12 in 1.22 in (2013)
Month to date precipitation 0.00 0.37  
Year to date precipitation 10.30 13.97  
Sea Level Pressure  
Sea Level Pressure 30.11 in    
Wind  
Wind Speed 6 mph (South)    
Max Wind Speed 16 mph    
Max Gust Speed 21 mph    
Visibility 9 miles    
Events      
T = Trace of Precipitation, MM = Missing Value Source: NWS Daily Summary

Daily Weather History Graph

Daily Weather History Graph

Search for Another Location

Airport or City:

Astronomy

Apr. 03, 2014 Rise Set
Actual Time 7:19 AM EDT 7:53 PM EDT
Civil Twilight 6:55 AM EDT 8:17 PM EDT
Nautical Twilight 6:26 AM EDT 8:46 PM EDT
Astronomical Twilight 5:57 AM EDT 9:15 PM EDT
Moon 10:01 AM EDT (4/3) 11:58 PM EDT (4/3)
Length of Visible Light 13h 22m
Length of Day
12h 33m
Waxing Crescent, 17% of the Moon is Illuminated
Apr 3
Waxing Crescent
Apr 7
First Quarter
Apr 15
Full
Apr 22
Last Quarter
Apr 29
New

Hourly Weather History & Observations

Time (EDT) Temp. Heat Index Dew Point Humidity Pressure Visibility Wind Dir Wind Speed Gust Speed Precip Events Conditions
12:53 AM 57.9 °F - 52.0 °F 81% 30.17 in 10.0 mi Calm Calm - N/A   Clear
1:53 AM 57.0 °F - 51.1 °F 81% 30.15 in 9.0 mi Calm Calm - N/A   Clear
2:53 AM 55.9 °F - 50.0 °F 80% 30.14 in 6.0 mi Calm Calm - N/A   Haze
3:53 AM 55.0 °F - 50.0 °F 83% 30.12 in 4.0 mi Calm Calm - N/A   Haze
4:53 AM 55.0 °F - 51.1 °F 86% 30.12 in 5.0 mi South 4.6 mph - N/A   Clear
5:53 AM 57.9 °F - 54.0 °F 87% 30.12 in 6.0 mi South 3.5 mph - N/A   Clear
6:53 AM 57.0 °F - 52.0 °F 83% 30.12 in 6.0 mi South 3.5 mph - N/A   Haze
7:53 AM 57.0 °F - 53.1 °F 87% 30.14 in 6.0 mi South 3.5 mph - N/A   Clear
8:53 AM 64.0 °F - 55.9 °F 75% 30.15 in 10.0 mi South 5.8 mph - N/A   Clear
9:53 AM 72.0 °F - 57.0 °F 59% 30.15 in 10.0 mi South 10.4 mph - N/A   Scattered Clouds
10:53 AM 77.0 °F - 57.9 °F 52% 30.15 in 10.0 mi South 10.4 mph - N/A   Scattered Clouds
11:53 AM 81.0 °F 81.1 °F 57.9 °F 45% 30.15 in 10.0 mi South 13.8 mph 18.4 mph N/A   Scattered Clouds
12:53 PM 84.0 °F 83.0 °F 55.9 °F 38% 30.13 in 10.0 mi South 13.8 mph 20.7 mph N/A   Scattered Clouds
1:53 PM 86.0 °F 84.2 °F 54.0 °F 33% 30.11 in 10.0 mi South 10.4 mph - N/A   Clear
2:53 PM 88.0 °F 86.5 °F 55.9 °F 34% 30.09 in 10.0 mi Variable 6.9 mph - N/A   Clear
3:53 PM 89.1 °F 86.9 °F 54.0 °F 30% 30.07 in 10.0 mi South 11.5 mph 16.1 mph 0.01 in   Clear
4:53 PM 88.0 °F - 52.0 °F 29% 30.05 in 10.0 mi SSW 9.2 mph - N/A   Clear
5:53 PM 84.0 °F 83.0 °F 55.9 °F 38% 30.05 in 10.0 mi South 9.2 mph 17.3 mph N/A   Clear
6:53 PM 80.1 °F 80.2 °F 55.9 °F 43% 30.06 in 10.0 mi SSW 8.1 mph - N/A   Clear
7:53 PM 75.0 °F - 57.0 °F 53% 30.07 in 10.0 mi SSW 3.5 mph - N/A   Clear
8:53 PM 69.1 °F - 57.0 °F 65% 30.09 in 10.0 mi Calm Calm - N/A   Clear
9:53 PM 68.0 °F - 57.0 °F 68% 30.09 in 10.0 mi South 4.6 mph - N/A   Clear
11:53 PM 64.0 °F - 57.9 °F 80% 30.07 in 10.0 mi Calm Calm - N/A   Clear